Year,Month,Day,Hour,Minute,Value (Times are PST for temperature in C)
2017,07,22,00,00,14.80
2017,07,22,00,01,14.80
2017,07,22,00,02,14.80
2017,07,22,00,03,14.80
2017,07,22,00,04,14.80
2017,07,22,00,05,14.90
2017,07,22,00,06,14.90
2017,07,22,00,07,14.90
2017,07,22,00,08,15.00
2017,07,22,00,09,15.00
2017,07,22,00,10,15.00
2017,07,22,00,11,15.00
2017,07,22,00,12,15.10
2017,07,22,00,13,15.10
2017,07,22,00,14,15.10
2017,07,22,00,15,15.20
2017,07,22,00,16,15.20
2017,07,22,00,17,15.20
2017,07,22,00,18,15.20
2017,07,22,00,19,15.30
2017,07,22,00,20,15.30
2017,07,22,00,21,15.30
2017,07,22,00,22,15.30
2017,07,22,00,23,15.30
2017,07,22,00,24,15.30
2017,07,22,00,25,15.30
2017,07,22,00,26,15.30
2017,07,22,00,27,15.30
2017,07,22,00,28,15.40
2017,07,22,00,29,15.40
2017,07,22,00,30,15.40
2017,07,22,00,32,15.40
2017,07,22,00,33,15.40
2017,07,22,00,34,15.40
2017,07,22,00,36,15.40
2017,07,22,00,37,15.40
2017,07,22,00,38,15.40
2017,07,22,00,39,15.40
2017,07,22,00,41,15.30
2017,07,22,00,42,15.30
2017,07,22,00,43,15.30
2017,07,22,00,44,15.30
2017,07,22,00,46,15.30
2017,07,22,00,47,15.20
2017,07,22,00,48,15.20
2017,07,22,00,49,15.10
2017,07,22,00,51,15.10
2017,07,22,00,52,15.00
2017,07,22,00,53,15.00
2017,07,22,00,54,15.00
2017,07,22,00,56,15.00
2017,07,22,00,57,15.00
2017,07,22,00,58,15.00
2017,07,22,00,59,15.00
2017,07,22,01,01,14.90
2017,07,22,01,02,14.90
2017,07,22,01,03,14.90
2017,07,22,01,04,14.90
2017,07,22,01,06,14.90
2017,07,22,01,07,14.90
2017,07,22,01,08,14.90
2017,07,22,01,09,14.90
2017,07,22,01,11,14.90
2017,07,22,01,12,14.90
2017,07,22,01,13,14.80
2017,07,22,01,14,14.80
2017,07,22,01,16,14.80
2017,07,22,01,17,14.80
2017,07,22,01,18,14.80
2017,07,22,01,19,14.80
2017,07,22,01,21,14.80
2017,07,22,01,22,14.80
2017,07,22,01,23,14.80
2017,07,22,01,24,14.80
2017,07,22,01,26,14.80
2017,07,22,01,27,14.80
2017,07,22,01,28,14.80
2017,07,22,01,29,14.80
2017,07,22,01,31,14.80
2017,07,22,01,32,14.80
2017,07,22,01,33,14.80
2017,07,22,01,34,14.80
2017,07,22,01,36,14.70
2017,07,22,01,37,14.70
2017,07,22,01,38,14.70
2017,07,22,01,39,14.70
2017,07,22,01,41,14.60
2017,07,22,01,42,14.60
2017,07,22,01,43,14.60
2017,07,22,01,44,14.60
2017,07,22,01,46,14.60
2017,07,22,01,47,14.60
2017,07,22,01,48,14.60
2017,07,22,01,49,14.60
2017,07,22,01,51,14.60
2017,07,22,01,52,14.60
2017,07,22,01,53,14.60
2017,07,22,01,54,14.60
2017,07,22,01,56,14.60
2017,07,22,01,57,14.60
2017,07,22,01,58,14.60
2017,07,22,01,59,14.60
2017,07,22,02,00,14.60
2017,07,22,02,01,14.60
2017,07,22,02,02,14.70
2017,07,22,02,03,14.70
2017,07,22,02,04,14.70
2017,07,22,02,06,14.70
2017,07,22,02,07,14.70
2017,07,22,02,08,14.70
2017,07,22,02,09,14.70
2017,07,22,02,10,14.70
2017,07,22,02,11,14.80
2017,07,22,02,12,14.80
2017,07,22,02,13,14.80
2017,07,22,02,14,14.80
2017,07,22,02,15,14.80
2017,07,22,02,16,14.80
2017,07,22,02,17,14.80
2017,07,22,02,18,14.80
2017,07,22,02,19,14.80
2017,07,22,02,20,14.80
2017,07,22,02,21,14.80
2017,07,22,02,22,14.80
2017,07,22,02,23,14.80
2017,07,22,02,24,14.80
2017,07,22,02,25,14.80
2017,07,22,02,26,14.80
2017,07,22,02,27,14.80
2017,07,22,02,28,14.80
2017,07,22,02,29,14.80
2017,07,22,02,30,14.80
2017,07,22,02,31,14.80
2017,07,22,02,32,14.80
2017,07,22,02,33,14.80
2017,07,22,02,34,14.80
2017,07,22,02,35,14.90
2017,07,22,02,36,14.90
2017,07,22,02,37,14.90
2017,07,22,02,38,14.90
2017,07,22,02,39,14.90
2017,07,22,02,40,14.90
2017,07,22,02,41,14.90
2017,07,22,02,42,14.90
2017,07,22,02,43,14.90
2017,07,22,02,44,14.90
2017,07,22,02,45,14.90
2017,07,22,02,46,14.90
2017,07,22,02,47,14.90
2017,07,22,02,48,14.80
2017,07,22,02,49,14.80
2017,07,22,02,50,14.80
2017,07,22,02,51,14.80
2017,07,22,02,52,14.80
2017,07,22,02,53,14.80
2017,07,22,02,54,14.80
2017,07,22,02,55,14.80
2017,07,22,02,56,14.80
2017,07,22,02,57,14.80
2017,07,22,02,58,14.80
2017,07,22,02,59,14.80
2017,07,22,03,00,14.80
2017,07,22,03,01,14.80
2017,07,22,03,02,14.80
2017,07,22,03,03,14.80
2017,07,22,03,04,14.80
2017,07,22,03,05,14.80
2017,07,22,03,06,14.80
2017,07,22,03,07,14.80
2017,07,22,03,08,14.80
2017,07,22,03,09,14.80
2017,07,22,03,10,14.80
2017,07,22,03,11,14.80
2017,07,22,03,12,14.80
2017,07,22,03,14,14.80
2017,07,22,03,16,14.80
2017,07,22,03,17,14.70
2017,07,22,03,18,14.70
2017,07,22,03,19,14.70
2017,07,22,03,21,14.60
2017,07,22,03,23,14.60
2017,07,22,03,24,14.60
2017,07,22,03,26,14.50
2017,07,22,03,27,14.50
2017,07,22,03,28,14.50
2017,07,22,03,29,14.50
2017,07,22,03,31,14.50
2017,07,22,03,32,14.40
2017,07,22,03,33,14.40
2017,07,22,03,34,14.40
2017,07,22,03,36,14.40
2017,07,22,03,37,14.40
2017,07,22,03,38,14.40
2017,07,22,03,39,14.40
2017,07,22,03,41,14.40
2017,07,22,03,42,14.40
2017,07,22,03,43,14.40
2017,07,22,03,44,14.40
2017,07,22,03,46,14.50
2017,07,22,03,47,14.50
2017,07,22,03,48,14.50
2017,07,22,03,49,14.50
2017,07,22,03,51,14.60
2017,07,22,03,52,14.60
2017,07,22,03,53,14.60
2017,07,22,03,54,14.60
2017,07,22,03,56,14.60
2017,07,22,03,57,14.60
2017,07,22,03,58,14.60
2017,07,22,03,59,14.60
2017,07,22,04,01,14.70
2017,07,22,04,02,14.70
2017,07,22,04,03,14.70
2017,07,22,04,04,14.70
2017,07,22,04,06,14.70
2017,07,22,04,07,14.70
2017,07,22,04,08,14.60
2017,07,22,04,09,14.60
2017,07,22,04,11,14.60
2017,07,22,04,12,14.60
2017,07,22,04,13,14.60
2017,07,22,04,14,14.60
2017,07,22,04,16,14.60
2017,07,22,04,17,14.60
2017,07,22,04,18,14.60
2017,07,22,04,19,14.50
2017,07,22,04,21,14.50
2017,07,22,04,22,14.50
2017,07,22,04,23,14.50
2017,07,22,04,24,14.40
2017,07,22,04,26,14.40
2017,07,22,04,27,14.40
2017,07,22,04,28,14.30
2017,07,22,04,29,14.30
2017,07,22,04,31,14.20
2017,07,22,04,32,14.20
2017,07,22,04,33,14.20
2017,07,22,04,34,14.20
2017,07,22,04,36,14.20
2017,07,22,04,37,14.20
2017,07,22,04,38,14.20
2017,07,22,04,39,14.20
2017,07,22,04,41,14.20
2017,07,22,04,42,14.20
2017,07,22,04,43,14.20
2017,07,22,04,44,14.10
2017,07,22,04,45,14.10
2017,07,22,04,46,14.10
2017,07,22,04,47,14.10
2017,07,22,04,48,14.10
2017,07,22,04,49,14.00
2017,07,22,04,50,14.00
2017,07,22,04,51,14.00
2017,07,22,04,52,14.00
2017,07,22,04,53,14.00
2017,07,22,04,54,13.90
2017,07,22,04,55,13.90
2017,07,22,04,56,13.90
2017,07,22,04,57,13.90
2017,07,22,04,58,13.80
2017,07,22,04,59,13.80
2017,07,22,05,00,13.70
2017,07,22,05,01,13.70
2017,07,22,05,02,13.70
2017,07,22,05,03,13.70
2017,07,22,05,04,13.70
2017,07,22,05,05,13.70
2017,07,22,05,06,13.70
2017,07,22,05,07,13.70
2017,07,22,05,08,13.60
2017,07,22,05,09,13.60
2017,07,22,05,10,13.60
2017,07,22,05,11,13.60
2017,07,22,05,12,13.60
2017,07,22,05,13,13.60
2017,07,22,05,14,13.60
2017,07,22,05,15,13.50
2017,07,22,05,16,13.50
2017,07,22,05,17,13.50
2017,07,22,05,18,13.50
2017,07,22,05,19,13.50
2017,07,22,05,20,13.50
2017,07,22,05,21,13.50
2017,07,22,05,22,13.50
2017,07,22,05,23,13.50
2017,07,22,05,24,13.50
2017,07,22,05,25,13.50
2017,07,22,05,26,13.50
2017,07,22,05,27,13.50
2017,07,22,05,28,13.50
2017,07,22,05,29,13.50
2017,07,22,05,30,13.50
2017,07,22,05,31,13.50
2017,07,22,05,32,13.50
2017,07,22,05,33,13.50
2017,07,22,05,34,13.50
2017,07,22,05,35,13.40
2017,07,22,05,36,13.40
2017,07,22,05,37,13.40
2017,07,22,05,38,13.40
2017,07,22,05,39,13.30
2017,07,22,05,40,13.30
2017,07,22,05,41,13.30
2017,07,22,05,42,13.30
2017,07,22,05,43,13.30
2017,07,22,05,44,13.30
2017,07,22,05,45,13.30
2017,07,22,05,46,13.30
2017,07,22,05,47,13.30
2017,07,22,05,48,13.30
2017,07,22,05,49,13.30
2017,07,22,05,50,13.30
2017,07,22,05,51,13.30
2017,07,22,05,52,13.30
2017,07,22,05,53,13.30
2017,07,22,05,54,13.30
2017,07,22,05,55,13.30
2017,07,22,05,56,13.30
2017,07,22,05,58,13.40
2017,07,22,05,59,13.40
2017,07,22,06,00,13.40
2017,07,22,06,02,13.50
2017,07,22,06,03,13.50
2017,07,22,06,04,13.50
2017,07,22,06,06,13.50
2017,07,22,06,07,13.50
2017,07,22,06,08,13.50
2017,07,22,06,09,13.50
2017,07,22,06,11,13.50
2017,07,22,06,12,13.50
2017,07,22,06,13,13.50
2017,07,22,06,14,13.50
2017,07,22,06,16,13.50
2017,07,22,06,17,13.50
2017,07,22,06,18,13.50
2017,07,22,06,19,13.50
2017,07,22,06,21,13.50
2017,07,22,06,22,13.50
2017,07,22,06,23,13.50
2017,07,22,06,24,13.60
2017,07,22,06,26,13.60
2017,07,22,06,27,13.60
2017,07,22,06,28,13.60
2017,07,22,06,29,13.60
2017,07,22,06,31,13.70
2017,07,22,06,32,13.70
2017,07,22,06,33,13.70
2017,07,22,06,34,13.70
2017,07,22,06,36,13.80
2017,07,22,06,37,13.80
2017,07,22,06,38,13.80
2017,07,22,06,39,13.80
2017,07,22,06,41,13.80
2017,07,22,06,42,13.80
2017,07,22,06,43,13.80
2017,07,22,06,44,13.80
2017,07,22,06,46,13.80
2017,07,22,06,47,13.80
2017,07,22,06,48,13.80
2017,07,22,06,49,13.80
2017,07,22,06,51,13.80
2017,07,22,06,52,13.80
2017,07,22,06,53,13.80
2017,07,22,06,54,13.80
2017,07,22,06,56,13.70
2017,07,22,06,57,13.70
2017,07,22,06,58,13.70
2017,07,22,06,59,13.70
2017,07,22,07,01,13.80
2017,07,22,07,02,13.80
2017,07,22,07,03,13.80
2017,07,22,07,04,13.80
2017,07,22,07,06,13.90
2017,07,22,07,07,13.90
2017,07,22,07,08,13.90
2017,07,22,07,09,13.90
2017,07,22,07,11,14.00
2017,07,22,07,12,13.90
2017,07,22,07,13,13.90
2017,07,22,07,14,13.90
2017,07,22,07,16,13.90
2017,07,22,07,17,13.90
2017,07,22,07,18,13.90
2017,07,22,07,19,13.90
2017,07,22,07,21,13.90
2017,07,22,07,22,13.90
2017,07,22,07,23,13.90
2017,07,22,07,24,13.90
2017,07,22,07,25,13.90
2017,07,22,07,26,13.90
2017,07,22,07,27,14.00
2017,07,22,07,28,14.00
2017,07,22,07,29,14.00
2017,07,22,07,30,14.00
2017,07,22,07,31,14.00
2017,07,22,07,32,13.90
2017,07,22,07,33,13.90
2017,07,22,07,34,13.90
2017,07,22,07,36,13.90
2017,07,22,07,37,13.90
2017,07,22,07,38,13.90
2017,07,22,07,39,13.90
2017,07,22,07,40,13.90
2017,07,22,07,41,13.90
2017,07,22,07,42,13.90
2017,07,22,07,43,13.90
2017,07,22,07,44,13.90
2017,07,22,07,45,13.90
2017,07,22,07,46,13.90
2017,07,22,07,47,13.90
2017,07,22,07,48,13.90
2017,07,22,07,49,13.90
2017,07,22,07,50,13.90
2017,07,22,07,51,13.90
2017,07,22,07,52,13.90
2017,07,22,07,53,13.90
2017,07,22,07,54,13.90
2017,07,22,07,55,14.00
2017,07,22,07,56,14.00
2017,07,22,07,57,14.00
2017,07,22,07,58,14.00
2017,07,22,07,59,14.00
2017,07,22,08,00,14.10
2017,07,22,08,01,14.10
2017,07,22,08,02,14.10
2017,07,22,08,03,14.10
2017,07,22,08,04,14.20
2017,07,22,08,05,14.20
2017,07,22,08,06,14.20
2017,07,22,08,07,14.20
2017,07,22,08,08,14.20
2017,07,22,08,09,14.20
2017,07,22,08,10,14.20
2017,07,22,08,11,14.20
2017,07,22,08,12,14.20
2017,07,22,08,13,14.20
2017,07,22,08,14,14.20
2017,07,22,08,15,14.20
2017,07,22,08,16,14.20
2017,07,22,08,17,14.20
2017,07,22,08,18,14.20
2017,07,22,08,19,14.20
2017,07,22,08,20,14.20
2017,07,22,08,21,14.20
2017,07,22,08,22,14.20
2017,07,22,08,23,14.20
2017,07,22,08,24,14.20
2017,07,22,08,25,14.10
2017,07,22,08,26,14.10
2017,07,22,08,27,14.00
2017,07,22,08,28,13.90
2017,07,22,08,29,13.90
2017,07,22,08,30,13.80
2017,07,22,08,31,13.70
2017,07,22,08,32,13.70
2017,07,22,08,33,13.70
2017,07,22,08,34,13.70
2017,07,22,08,36,13.70
2017,07,22,08,37,13.70
2017,07,22,08,38,13.70
2017,07,22,08,39,13.60
2017,07,22,08,41,13.50
2017,07,22,08,42,13.50
2017,07,22,08,43,13.50
2017,07,22,08,44,13.40
2017,07,22,08,46,13.50
2017,07,22,08,47,13.50
2017,07,22,08,48,13.50
2017,07,22,08,49,13.50
2017,07,22,08,51,13.60
2017,07,22,08,52,13.60
2017,07,22,08,53,13.60
2017,07,22,08,54,13.60
2017,07,22,08,56,13.70
2017,07,22,08,57,13.70
2017,07,22,08,58,13.70
2017,07,22,08,59,13.70
2017,07,22,09,01,13.70
2017,07,22,09,02,13.80
2017,07,22,09,03,13.80
2017,07,22,09,04,13.90
2017,07,22,09,06,13.90
2017,07,22,09,07,14.00
2017,07,22,09,08,14.00
2017,07,22,09,09,14.00
2017,07,22,09,11,14.00
2017,07,22,09,12,14.10
2017,07,22,09,13,14.10
2017,07,22,09,14,14.10
2017,07,22,09,16,14.10
2017,07,22,09,17,14.10
2017,07,22,09,18,14.10
2017,07,22,09,19,14.20
2017,07,22,09,21,14.20
2017,07,22,09,22,14.20
2017,07,22,09,23,14.20
2017,07,22,09,24,14.20
2017,07,22,09,26,14.30
2017,07,22,09,27,14.30
2017,07,22,09,28,14.40
2017,07,22,09,29,14.40
2017,07,22,09,31,14.40
2017,07,22,09,32,14.50
2017,07,22,09,33,14.50
2017,07,22,09,34,14.50
2017,07,22,09,36,14.50
2017,07,22,09,37,14.50
2017,07,22,09,38,14.50
2017,07,22,09,39,14.50
2017,07,22,09,41,14.50
2017,07,22,09,42,14.50
2017,07,22,09,43,14.50
2017,07,22,09,44,14.50
2017,07,22,09,46,14.50
2017,07,22,09,47,14.50
2017,07,22,09,48,14.50
2017,07,22,09,49,14.50
2017,07,22,09,51,14.60
2017,07,22,09,52,14.60
2017,07,22,09,53,14.60
2017,07,22,09,54,14.50
2017,07,22,09,56,14.50
2017,07,22,09,57,14.50
2017,07,22,09,58,14.60
2017,07,22,09,59,14.70
2017,07,22,10,00,14.80
2017,07,22,10,01,14.80
2017,07,22,10,02,14.90
2017,07,22,10,03,14.90
2017,07,22,10,04,15.00
2017,07,22,10,06,15.20
2017,07,22,10,07,15.30
2017,07,22,10,08,15.40
2017,07,22,10,09,15.50
2017,07,22,10,11,15.70
2017,07,22,10,12,15.80
2017,07,22,10,13,15.80
2017,07,22,10,14,15.80
2017,07,22,10,15,15.90
2017,07,22,10,16,15.90
2017,07,22,10,17,16.10
2017,07,22,10,18,16.10
2017,07,22,10,19,16.10
2017,07,22,10,20,16.10
2017,07,22,10,21,16.10
2017,07,22,10,22,16.10
2017,07,22,10,23,16.10
2017,07,22,10,24,16.20
2017,07,22,10,25,16.20
2017,07,22,10,26,16.20
2017,07,22,10,27,16.30
2017,07,22,10,28,16.30
2017,07,22,10,29,16.40
2017,07,22,10,30,16.40
2017,07,22,10,31,16.40
2017,07,22,10,32,16.60
2017,07,22,10,33,16.60
2017,07,22,10,34,16.60
2017,07,22,10,35,16.60
2017,07,22,10,36,16.70
2017,07,22,10,37,16.70
2017,07,22,10,38,16.70
2017,07,22,10,39,16.70
2017,07,22,10,40,16.70
2017,07,22,10,41,16.80
2017,07,22,10,42,16.80
2017,07,22,10,43,16.80
2017,07,22,10,44,16.80
2017,07,22,10,45,16.90
2017,07,22,10,46,16.90
2017,07,22,10,47,16.90
2017,07,22,10,48,17.00
2017,07,22,10,49,17.00
2017,07,22,10,50,17.00
2017,07,22,10,51,17.00
2017,07,22,10,52,17.10
2017,07,22,10,53,17.10
2017,07,22,10,54,17.10
2017,07,22,10,55,17.10
2017,07,22,10,56,17.10
2017,07,22,10,57,17.10
2017,07,22,10,58,17.10
2017,07,22,10,59,17.10
2017,07,22,11,00,17.10
2017,07,22,11,01,17.10
2017,07,22,11,02,17.20
2017,07,22,11,03,17.30
2017,07,22,11,04,17.30
2017,07,22,11,05,17.30
2017,07,22,11,06,17.30
2017,07,22,11,07,17.40
2017,07,22,11,08,17.50
2017,07,22,11,09,17.60
2017,07,22,11,10,17.70
2017,07,22,11,11,17.70
2017,07,22,11,12,17.80
2017,07,22,11,13,17.80
2017,07,22,11,14,17.90
2017,07,22,11,15,17.90
2017,07,22,11,16,17.90
2017,07,22,11,17,17.90
2017,07,22,11,18,18.10
2017,07,22,11,19,18.10
2017,07,22,11,20,18.10
2017,07,22,11,21,18.10
2017,07,22,11,23,18.10
2017,07,22,11,24,18.10
2017,07,22,11,26,18.10
2017,07,22,11,27,18.10
2017,07,22,11,28,18.20
2017,07,22,11,29,18.20
2017,07,22,11,31,18.20
2017,07,22,11,32,18.20
2017,07,22,11,33,18.20
2017,07,22,11,34,18.20
2017,07,22,11,36,18.20
2017,07,22,11,37,18.20
2017,07,22,11,38,18.20
2017,07,22,11,39,18.20
2017,07,22,11,41,18.20
2017,07,22,11,42,18.20
2017,07,22,11,43,18.20
2017,07,22,11,44,18.30
2017,07,22,11,46,18.40
2017,07,22,11,47,18.50
2017,07,22,11,48,18.50
2017,07,22,11,49,18.60
2017,07,22,11,51,18.70
2017,07,22,11,52,18.70
2017,07,22,11,53,18.80
2017,07,22,11,54,18.90
2017,07,22,11,56,19.10
2017,07,22,11,57,19.10
2017,07,22,11,58,19.20
2017,07,22,11,59,19.30
2017,07,22,12,01,19.40
2017,07,22,12,02,19.50
2017,07,22,12,03,19.60
2017,07,22,12,04,19.60
2017,07,22,12,06,19.80
2017,07,22,12,07,19.80
2017,07,22,12,08,19.80
2017,07,22,12,09,19.80
2017,07,22,12,11,19.80
2017,07,22,12,12,19.80
2017,07,22,12,13,19.80
2017,07,22,12,14,19.80
2017,07,22,12,16,19.70
2017,07,22,12,17,19.80
2017,07,22,12,18,19.80
2017,07,22,12,19,19.80
2017,07,22,12,21,19.90
2017,07,22,12,22,19.90
2017,07,22,12,23,19.90
2017,07,22,12,24,19.90
2017,07,22,12,26,19.90
2017,07,22,12,27,20.10
2017,07,22,12,28,20.10
2017,07,22,12,29,20.10
2017,07,22,12,31,20.20
2017,07,22,12,32,20.20
2017,07,22,12,33,20.20
2017,07,22,12,34,20.20
2017,07,22,12,36,20.20
2017,07,22,12,37,20.30
2017,07,22,12,38,20.30
2017,07,22,12,39,20.40
2017,07,22,12,41,20.40
2017,07,22,12,42,20.40
2017,07,22,12,43,20.30
2017,07,22,12,44,20.20
2017,07,22,12,46,20.20
2017,07,22,12,47,20.20
2017,07,22,12,48,20.20
2017,07,22,12,49,20.10
2017,07,22,12,51,20.10
2017,07,22,12,52,19.90
2017,07,22,12,53,19.90
2017,07,22,12,54,19.90
2017,07,22,12,55,19.90
2017,07,22,12,56,19.90
2017,07,22,12,57,19.90
2017,07,22,12,58,19.90
2017,07,22,12,59,19.90
2017,07,22,13,00,19.90
2017,07,22,13,01,19.90
2017,07,22,13,02,19.80
2017,07,22,13,03,19.80
2017,07,22,13,04,19.80
2017,07,22,13,06,19.80
2017,07,22,13,07,19.80
2017,07,22,13,08,19.80
2017,07,22,13,09,19.80
2017,07,22,13,10,19.70
2017,07,22,13,11,19.70
2017,07,22,13,12,19.60
2017,07,22,13,13,19.50
2017,07,22,13,14,19.50
2017,07,22,13,15,19.40
2017,07,22,13,16,19.30
2017,07,22,13,17,19.20
2017,07,22,13,18,19.10
2017,07,22,13,19,19.10
2017,07,22,13,20,19.10
2017,07,22,13,21,18.90
2017,07,22,13,22,18.90
2017,07,22,13,23,18.90
2017,07,22,13,24,18.80
2017,07,22,13,25,18.70
2017,07,22,13,26,18.60
2017,07,22,13,27,18.50
2017,07,22,13,28,18.40
2017,07,22,13,29,18.30
2017,07,22,13,30,18.20
2017,07,22,13,31,18.20
2017,07,22,13,32,18.10
2017,07,22,13,33,17.90
2017,07,22,13,34,17.90
2017,07,22,13,35,17.80
2017,07,22,13,36,17.80
2017,07,22,13,37,17.70
2017,07,22,13,38,17.70
2017,07,22,13,39,17.70
2017,07,22,13,40,17.70
2017,07,22,13,41,17.70
2017,07,22,13,42,17.70
2017,07,22,13,43,17.60
2017,07,22,13,44,17.60
2017,07,22,13,45,17.60
2017,07,22,13,46,17.60
2017,07,22,13,47,17.50
2017,07,22,13,48,17.50
2017,07,22,13,49,17.40
2017,07,22,13,50,17.40
2017,07,22,13,51,17.30
2017,07,22,13,52,17.30
2017,07,22,13,53,17.30
2017,07,22,13,54,17.30
2017,07,22,13,55,17.20
2017,07,22,13,56,17.10
2017,07,22,13,57,17.10
2017,07,22,13,58,17.00
2017,07,22,13,59,17.00
2017,07,22,14,01,16.90
2017,07,22,14,02,16.90
2017,07,22,14,03,16.90
2017,07,22,14,04,16.90
2017,07,22,14,06,16.80
2017,07,22,14,07,16.80
2017,07,22,14,08,16.90
2017,07,22,14,09,16.90
2017,07,22,14,11,16.90
2017,07,22,14,12,17.00
2017,07,22,14,13,17.10
2017,07,22,14,14,17.10
2017,07,22,14,16,17.30
2017,07,22,14,17,17.30
2017,07,22,14,18,17.30
2017,07,22,14,19,17.30
2017,07,22,14,21,17.40
2017,07,22,14,22,17.50
2017,07,22,14,23,17.60
2017,07,22,14,24,17.70
2017,07,22,14,26,17.90
2017,07,22,14,27,17.90
2017,07,22,14,28,17.90
2017,07,22,14,29,17.80
2017,07,22,14,31,17.80
2017,07,22,14,32,17.80
2017,07,22,14,33,17.80
2017,07,22,14,34,17.80
2017,07,22,14,36,17.90
2017,07,22,14,37,17.90
2017,07,22,14,38,17.90
2017,07,22,14,39,17.90
2017,07,22,14,41,17.90
2017,07,22,14,42,18.10
2017,07,22,14,43,18.10
2017,07,22,14,44,18.10
2017,07,22,14,46,18.20
2017,07,22,14,47,18.20
2017,07,22,14,48,18.20
2017,07,22,14,49,18.20
2017,07,22,14,51,18.30
2017,07,22,14,52,18.30
2017,07,22,14,53,18.30
2017,07,22,14,54,18.30
2017,07,22,14,56,18.20
2017,07,22,14,57,18.20
2017,07,22,14,58,18.20
2017,07,22,14,59,18.20
2017,07,22,15,01,18.20
2017,07,22,15,02,18.30
2017,07,22,15,03,18.30
2017,07,22,15,04,18.20
2017,07,22,15,06,18.20
2017,07,22,15,07,18.20
2017,07,22,15,08,18.20
2017,07,22,15,09,18.20
2017,07,22,15,11,18.20
2017,07,22,15,12,18.20
2017,07,22,15,13,18.20
2017,07,22,15,14,18.20
2017,07,22,15,15,18.20
2017,07,22,15,16,18.20
2017,07,22,15,17,18.20
2017,07,22,15,18,18.20
2017,07,22,15,19,18.20
2017,07,22,15,21,18.20
2017,07,22,15,22,18.10
2017,07,22,15,23,17.90
2017,07,22,15,24,17.90
2017,07,22,15,25,17.90
2017,07,22,15,26,17.80
2017,07,22,15,27,17.80
2017,07,22,15,28,17.80
2017,07,22,15,29,17.80
2017,07,22,15,30,17.80
2017,07,22,15,31,17.90
2017,07,22,15,32,17.90
2017,07,22,15,33,17.90
2017,07,22,15,34,17.90
2017,07,22,15,36,17.90
2017,07,22,15,37,17.90
2017,07,22,15,38,17.90
2017,07,22,15,39,17.90
2017,07,22,15,40,17.90
2017,07,22,15,41,18.10
2017,07,22,15,42,18.10
2017,07,22,15,43,18.20
2017,07,22,15,44,18.20
2017,07,22,15,45,18.20
2017,07,22,15,46,18.20
2017,07,22,15,47,18.20
2017,07,22,15,48,18.20
2017,07,22,15,49,18.20
2017,07,22,15,50,18.30
2017,07,22,15,51,18.40
2017,07,22,15,52,18.40
2017,07,22,15,53,18.50
2017,07,22,15,54,18.60
2017,07,22,15,55,18.70
2017,07,22,15,56,18.80
2017,07,22,15,57,18.90
2017,07,22,15,58,18.90
2017,07,22,15,59,19.10
2017,07,22,16,00,19.10
2017,07,22,16,01,19.10
2017,07,22,16,02,19.20
2017,07,22,16,03,19.20
2017,07,22,16,04,19.20
2017,07,22,16,05,19.10
2017,07,22,16,06,19.10
2017,07,22,16,07,19.10
2017,07,22,16,08,19.10
2017,07,22,16,09,19.10
2017,07,22,16,10,18.90
2017,07,22,16,11,18.90
2017,07,22,16,12,18.90
2017,07,22,16,13,18.90
2017,07,22,16,14,18.80
2017,07,22,16,15,18.80
2017,07,22,16,16,18.80
2017,07,22,16,17,18.70
2017,07,22,16,18,18.70
2017,07,22,16,19,18.70
2017,07,22,16,20,18.70
2017,07,22,16,21,18.70
2017,07,22,16,22,18.70
2017,07,22,16,23,18.70
2017,07,22,16,24,18.60
2017,07,22,16,25,18.60
2017,07,22,16,26,18.60
2017,07,22,16,27,18.60
2017,07,22,16,28,18.50
2017,07,22,16,29,18.50
2017,07,22,16,30,18.50
2017,07,22,16,31,18.50
2017,07,22,16,32,18.40
2017,07,22,16,33,18.40
2017,07,22,16,34,18.40
2017,07,22,16,35,18.50
2017,07,22,16,36,18.50
2017,07,22,16,37,18.50
2017,07,22,16,38,18.50
2017,07,22,16,39,18.50
2017,07,22,16,40,18.60
2017,07,22,16,41,18.60
2017,07,22,16,42,18.70
2017,07,22,16,43,18.70
2017,07,22,16,44,18.80
2017,07,22,16,45,18.80
2017,07,22,16,46,18.90
2017,07,22,16,48,18.90
2017,07,22,16,49,19.10
2017,07,22,16,51,19.10
2017,07,22,16,52,19.10
2017,07,22,16,53,19.10
2017,07,22,16,54,19.10
2017,07,22,16,56,19.30
2017,07,22,16,57,19.40
2017,07,22,16,58,19.40
2017,07,22,16,59,19.50
2017,07,22,17,01,19.60
2017,07,22,17,02,19.70
2017,07,22,17,03,19.70
2017,07,22,17,04,19.70
2017,07,22,17,06,19.70
2017,07,22,17,07,19.70
2017,07,22,17,08,19.70
2017,07,22,17,09,19.70
2017,07,22,17,11,19.70
2017,07,22,17,12,19.70
2017,07,22,17,13,19.70
2017,07,22,17,14,19.70
2017,07,22,17,16,19.70
2017,07,22,17,17,19.70
2017,07,22,17,18,19.70
2017,07,22,17,19,19.70
2017,07,22,17,21,19.70
2017,07,22,17,22,19.70
2017,07,22,17,23,19.70
2017,07,22,17,24,19.70
2017,07,22,17,26,19.70
2017,07,22,17,27,19.80
2017,07,22,17,28,19.80
2017,07,22,17,29,19.80
2017,07,22,17,31,19.90
2017,07,22,17,32,19.90
2017,07,22,17,33,19.90
2017,07,22,17,34,19.90
2017,07,22,17,36,19.90
2017,07,22,17,37,19.90
2017,07,22,17,38,19.90
2017,07,22,17,39,19.90
2017,07,22,17,41,20.10
2017,07,22,17,42,20.20
2017,07,22,17,43,20.20
2017,07,22,17,44,20.20
2017,07,22,17,46,20.30
2017,07,22,17,47,20.30
2017,07,22,17,48,20.30
2017,07,22,17,49,20.40
2017,07,22,17,51,20.50
2017,07,22,17,52,20.50
2017,07,22,17,53,20.60
2017,07,22,17,54,20.60
2017,07,22,17,56,20.70
2017,07,22,17,57,20.70
2017,07,22,17,58,20.80
2017,07,22,17,59,20.80
2017,07,22,18,01,20.90
2017,07,22,18,02,20.90
2017,07,22,18,03,20.90
2017,07,22,18,04,20.90
2017,07,22,18,06,20.90
2017,07,22,18,07,20.90
2017,07,22,18,08,20.90
2017,07,22,18,09,20.90
2017,07,22,18,11,20.90
2017,07,22,18,12,20.90
2017,07,22,18,13,20.90
2017,07,22,18,14,20.90
2017,07,22,18,15,20.90
2017,07,22,18,16,20.90
2017,07,22,18,17,20.90
2017,07,22,18,18,20.90
2017,07,22,18,19,20.80
2017,07,22,18,21,20.80
2017,07,22,18,22,20.70
2017,07,22,18,23,20.70
2017,07,22,18,24,20.60
2017,07,22,18,25,20.60
2017,07,22,18,26,20.50
2017,07,22,18,27,20.50
2017,07,22,18,28,20.40
2017,07,22,18,29,20.40
2017,07,22,18,30,20.30
2017,07,22,18,31,20.30
2017,07,22,18,32,20.20
2017,07,22,18,33,20.20
2017,07,22,18,34,20.20
2017,07,22,18,35,20.10
2017,07,22,18,36,20.10
2017,07,22,18,37,19.90
2017,07,22,18,38,19.90
2017,07,22,18,39,19.90
2017,07,22,18,40,19.90
2017,07,22,18,41,19.90
2017,07,22,18,42,19.90
2017,07,22,18,43,19.90
2017,07,22,18,44,19.90
2017,07,22,18,45,19.90
2017,07,22,18,46,19.90
2017,07,22,18,47,19.90
2017,07,22,18,48,19.90
2017,07,22,18,49,19.90
2017,07,22,18,50,19.90
2017,07,22,18,51,19.90
2017,07,22,18,52,20.10
2017,07,22,18,53,20.10
2017,07,22,18,54,20.10
2017,07,22,18,55,20.10
2017,07,22,18,56,20.10
2017,07,22,18,57,19.90
2017,07,22,18,58,19.90
2017,07,22,18,59,19.90
2017,07,22,19,00,19.90
2017,07,22,19,01,19.90
2017,07,22,19,02,19.90
2017,07,22,19,03,19.90
2017,07,22,19,04,19.90
2017,07,22,19,05,19.90
2017,07,22,19,06,19.90
2017,07,22,19,07,19.90
2017,07,22,19,08,19.90
2017,07,22,19,09,19.90
2017,07,22,19,10,19.90
2017,07,22,19,11,19.90
2017,07,22,19,12,19.90
2017,07,22,19,13,19.80
2017,07,22,19,14,19.80
2017,07,22,19,15,19.80
2017,07,22,19,16,19.70
2017,07,22,19,17,19.70
2017,07,22,19,18,19.70
2017,07,22,19,19,19.60
2017,07,22,19,20,19.60
2017,07,22,19,21,19.60
2017,07,22,19,22,19.50
2017,07,22,19,23,19.50
2017,07,22,19,24,19.40
2017,07,22,19,25,19.40
2017,07,22,19,26,19.40
2017,07,22,19,27,19.40
2017,07,22,19,28,19.30
2017,07,22,19,29,19.30
2017,07,22,19,30,19.30
2017,07,22,19,31,19.30
2017,07,22,19,32,19.30